When you browse on this site, cookies collect data to enhance your experience and personalize the content and advertising you see.
Visit our Privacy Policy to learn more. By continuing to use the site, you agree to this use of cookies and data.
EN

Hourly Weather Florianópolis

Today, 12 August, Wednesday

Time Temperature Precipitation Wind Pressure Humidity
00:00 +14°C° 0 mm 3 mps 764 mmHg 76%
01:00 +14°C° 0 mm 3 mps 764 mmHg 77%
02:00 +14°C° 0 mm 3 mps 764 mmHg 77%
03:00 +14°C° 0 mm 3 mps 763 mmHg 77%
04:00 +14°C° 0 mm 3 mps 763 mmHg 79%
05:00 +14°C° 0 mm 3 mps 763 mmHg 81%
06:00 +15°C° 0 mm 2 mps 763 mmHg 82%
07:00 +15°C° 0.1 mm 2 mps 763 mmHg 83%
08:00 +15°C° 0.1 mm 2 mps 763 mmHg 85%
09:00 +15°C° 0.1 mm 2 mps 764 mmHg 86%
10:00 +16°C° 0.1 mm 2 mps 763 mmHg 84%
11:00 +16°C° 0.1 mm 2 mps 763 mmHg 83%
12:00 +18°C° 0.1 mm 1 mps 763 mmHg 81%
13:00 +18°C° 0 mm 1 mps 762 mmHg 82%
14:00 +19°C° 0 mm 1 mps 761 mmHg 82%
15:00 +19°C° 0 mm 1 mps 761 mmHg 83%
16:00 +19°C° 0 mm 1 mps 760 mmHg 85%
17:00 +19°C° 0 mm 1 mps 760 mmHg 87%
18:00 +19°C° 0 mm 1 mps 760 mmHg 89%
19:00 +19°C° 0.1 mm 1 mps 760 mmHg 90%
20:00 +19°C° 0.1 mm 1 mps 760 mmHg 90%
21:00 +19°C° 0.1 mm 1 mps 760 mmHg 91%
22:00 +19°C° 0.6 mm 1 mps 760 mmHg 92%
23:00 +18°C° 0.6 mm 2 mps 760 mmHg 94%

Tomorrow, 13 August, Thursday

Time Temperature Precipitation Wind Pressure Humidity
00:00 +18°C° 0.6 mm 2 mps 759 mmHg 95%
01:00 +18°C° 0.5 mm 2 mps 759 mmHg 95%
02:00 +19°C° 0.5 mm 1 mps 758 mmHg 96%
03:00 +19°C° 0.5 mm 1 mps 758 mmHg 96%
04:00 +18°C° 0.3 mm 2 mps 758 mmHg 96%
05:00 +18°C° 0.3 mm 2 mps 758 mmHg 95%
06:00 +18°C° 0.3 mm 2 mps 758 mmHg 95%
07:00 +19°C° 0.1 mm 2 mps 758 mmHg 93%
08:00 +20°C° 0.1 mm 2 mps 758 mmHg 91%
09:00 +20°C° 0.1 mm 3 mps 759 mmHg 89%
10:00 +22°C° 0.1 mm 3 mps 758 mmHg 80%
11:00 +25°C° 0.1 mm 3 mps 758 mmHg 70%
12:00 +27°C° 0.1 mm 3 mps 757 mmHg 61%
13:00 +27°C° 0.1 mm 3 mps 757 mmHg 61%
14:00 +28°C° 0.1 mm 3 mps 756 mmHg 62%
15:00 +28°C° 0.1 mm 4 mps 756 mmHg 62%
16:00 +26°C° 1.1 mm 3 mps 756 mmHg 73%
17:00 +24°C° 1.1 mm 2 mps 756 mmHg 85%
18:00 +21°C° 1.1 mm 2 mps 757 mmHg 96%
19:00 +20°C° 0.9 mm 2 mps 757 mmHg 96%
20:00 +20°C° 0.9 mm 3 mps 758 mmHg 96%
21:00 +20°C° 0.9 mm 3 mps 758 mmHg 96%
22:00 +19°C° 0.9 mm 3 mps 759 mmHg 96%
23:00 +19°C° 0.9 mm 3 mps 759 mmHg 96%

Day after tomorrow, 14 August, Friday

Time Temperature Precipitation Wind Pressure Humidity
00:00 +19°C° 0.9 mm 2 mps 759 mmHg 96%
01:00 +19°C° 0.4 mm 2 mps 759 mmHg 96%
02:00 +18°C° 0.4 mm 2 mps 759 mmHg 96%
03:00 +19°C° 0.4 mm 1 mps 758 mmHg 96%
04:00 +19°C° 0.1 mm 1 mps 758 mmHg 96%
05:00 +19°C° 0.1 mm 1 mps 758 mmHg 96%
06:00 +19°C° 0.1 mm 1 mps 758 mmHg 96%
07:00 +20°C° 0.6 mm 1 mps 759 mmHg 95%
08:00 +18°C° 0.6 mm 0 mps 759 mmHg 93%
09:00 +19°C° 0.6 mm 0 mps 759 mmHg 92%
10:00 +20°C° 0.3 mm 0 mps 759 mmHg 90%
11:00 +22°C° 0.3 mm 1 mps 759 mmHg 88%
12:00 +23°C° 0.3 mm 1 mps 759 mmHg 86%
13:00 +23°C° 0.1 mm 1 mps 758 mmHg 85%
14:00 +23°C° 0.1 mm 1 mps 757 mmHg 85%
15:00 +23°C° 0.1 mm 2 mps 756 mmHg 84%
16:00 +23°C° 0.2 mm 2 mps 756 mmHg 87%
17:00 +21°C° 0.2 mm 2 mps 756 mmHg 90%
18:00 +21°C° 0.2 mm 3 mps 757 mmHg 93%
19:00 +21°C° 0.3 mm 3 mps 757 mmHg 94%
20:00 +20°C° 0.3 mm 2 mps 757 mmHg 95%
21:00 +20°C° 0.3 mm 2 mps 757 mmHg 96%
22:00 +20°C° 0.6 mm 3 mps 757 mmHg 96%
23:00 +20°C° 0.6 mm 3 mps 757 mmHg 96%

15 August, Saturday

Time Temperature Precipitation Wind Pressure Humidity
00:00 +20°C° 0.6 mm 4 mps 756 mmHg 96%
01:00 +20°C° 0.3 mm 4 mps 756 mmHg 96%
02:00 +20°C° 0.3 mm 3 mps 756 mmHg 95%
03:00 +20°C° 0.3 mm 3 mps 756 mmHg 95%
04:00 +20°C° 0.6 mm 3 mps 756 mmHg 95%
05:00 +20°C° 0.6 mm 3 mps 756 mmHg 95%
06:00 +20°C° 0.6 mm 2 mps 756 mmHg 95%
07:00 +20°C° 0.5 mm 2 mps 756 mmHg 94%
08:00 +21°C° 0.5 mm 2 mps 757 mmHg 92%
09:00 +23°C° 0.5 mm 2 mps 757 mmHg 91%
10:00 +24°C° 0.1 mm 3 mps 757 mmHg 86%
11:00 +24°C° 0.1 mm 3 mps 756 mmHg 81%
12:00 +25°C° 0.1 mm 4 mps 756 mmHg 76%
13:00 +25°C° 0.2 mm 4 mps 756 mmHg 78%
14:00 +25°C° 0.2 mm 3 mps 755 mmHg 80%
15:00 +25°C° 0.2 mm 3 mps 755 mmHg 82%
16:00 +24°C° 1 mm 3 mps 755 mmHg 87%
17:00 +21°C° 1 mm 3 mps 755 mmHg 91%
18:00 +20°C° 1 mm 3 mps 755 mmHg 95%
19:00 +19°C° 1 mm 4 mps 756 mmHg 95%
20:00 +19°C° 1 mm 4 mps 756 mmHg 96%
21:00 +19°C° 1 mm 5 mps 757 mmHg 96%
22:00 +17°C° 1.3 mm 5 mps 757 mmHg 95%
23:00 +17°C° 1.3 mm 5 mps 758 mmHg 95%

16 August, Sunday

Time Temperature Precipitation Wind Pressure Humidity
00:00 +17°C° 1.3 mm 5 mps 758 mmHg 94%
01:00 +17°C° 0.9 mm 5 mps 758 mmHg 94%
02:00 +16°C° 0.9 mm 6 mps 758 mmHg 93%
03:00 +16°C° 0.9 mm 6 mps 759 mmHg 92%
04:00 +15°C° 0.2 mm 5 mps 759 mmHg 91%
05:00 +15°C° 0.2 mm 5 mps 759 mmHg 90%
06:00 +15°C° 0.2 mm 5 mps 760 mmHg 90%
07:00 +14°C° 0.1 mm 5 mps 760 mmHg 88%
08:00 +14°C° 0.1 mm 4 mps 760 mmHg 86%
09:00 +14°C° 0.1 mm 4 mps 761 mmHg 84%
10:00 +15°C° 0 mm 4 mps 761 mmHg 79%
11:00 +17°C° 0 mm 3 mps 761 mmHg 74%
12:00 +17°C° 0 mm 3 mps 761 mmHg 69%
13:00 +17°C° 0 mm 3 mps 760 mmHg 68%
14:00 +17°C° 0 mm 3 mps 760 mmHg 67%
15:00 +17°C° 0 mm 3 mps 759 mmHg 66%
16:00 +17°C° 0 mm 2 mps 760 mmHg 67%
17:00 +16°C° 0 mm 2 mps 760 mmHg 68%
18:00 +16°C° 0 mm 2 mps 760 mmHg 70%
19:00 +16°C° 0 mm 2 mps 760 mmHg 71%
20:00 +15°C° 0 mm 2 mps 760 mmHg 72%
21:00 +15°C° 0 mm 2 mps 760 mmHg 73%
22:00 +15°C° 0 mm 2 mps 761 mmHg 74%
23:00 +15°C° 0 mm 2 mps 761 mmHg 76%

17 August, Monday

Time Temperature Precipitation Wind Pressure Humidity
00:00 +14°C° 0 mm 1 mps 761 mmHg 77%
01:00 +14°C° 0 mm 1 mps 760 mmHg 78%
02:00 +14°C° 0 mm 1 mps 760 mmHg 78%
03:00 +14°C° 0 mm 1 mps 760 mmHg 79%
04:00 +15°C° 0 mm 1 mps 760 mmHg 77%
05:00 +15°C° 0 mm 1 mps 760 mmHg 76%
06:00 +16°C° 0 mm 1 mps 760 mmHg 74%
07:00 +18°C° 0 mm 1 mps 760 mmHg 73%
08:00 +16°C° 0 mm 0 mps 760 mmHg 72%
09:00 +17°C° 0 mm 0 mps 760 mmHg 70%
10:00 +20°C° 0 mm 1 mps 760 mmHg 68%
11:00 +21°C° 0 mm 1 mps 760 mmHg 67%
12:00 +22°C° 0 mm 1 mps 760 mmHg 65%
13:00 +20°C° 0 mm 2 mps 759 mmHg 70%
14:00 +20°C° 0 mm 3 mps 759 mmHg 74%
15:00 +19°C° 0 mm 3 mps 758 mmHg 79%
16:00 +18°C° 0 mm 3 mps 759 mmHg 81%
17:00 +18°C° 0 mm 3 mps 759 mmHg 84%
18:00 +17°C° 0 mm 3 mps 759 mmHg 87%
19:00 +17°C° 0.2 mm 3 mps 759 mmHg 88%
20:00 +17°C° 0.2 mm 3 mps 759 mmHg 89%
21:00 +17°C° 0.2 mm 2 mps 759 mmHg 91%
22:00 +17°C° 0.9 mm 2 mps 759 mmHg 92%
23:00 +17°C° 0.9 mm 2 mps 759 mmHg 93%
Show more